Location: McFarlands Corners
(41.4117°N, 81.3382°W)
Time: 08:10:09
(UTC+00:00)

Vanguard 1 Rocket - Pass Details

Date: 18 February 2026
Orbit: 653 x 4214 km, 34.3° (Epoch: 12 March)

Event Time Altitude Azimuth Distance (km) Brightness Sun altitude
Rises 23:36:29 0° 279° (W) 6,024 13.3 -7.0°
Reaches altitude 10° 23:39:56 10° 274° (W) 5,404 12.9 -7.6°
Maximum altitude 23:56:55 51° 206° (SSW) 4,372 11.0 -10.8°
Drops below altitude 10° 00:21:08 10° 140° (SE) 7,362 11.6 -15.3°
Sets 00:27:00 0° 135° (SE) 8,242 11.9 -16.4°
